Temperature
7 7 7 7 7 7 7 7 7 7 7 7 7 7 7 7 7 7 7 7 7 7 7 7 7 7 7 7 7 7 7 7 6 6 6 6 6 6 6 6 6 6 6
6 6 6 6 7 7 7 7 7 7 7 7 7 7 7 7 7 7 7 7 6 6 6 6 6 6 6 6 6 6 6 6 6 6 5 5 6 6 5 5 6 5 5
6 6 6 6 6 6 6 6 6 6 6 6 6 6 6 6 6 6 6 6 6 6 6 6 6 6 6 6 6 6 6 5 5 5 5 5 5 5 5 5 5 5 5
5 5 5 5 5 5 6 6 6 5 5 5 5 5 5 5 5 5 5 5 5 5 5 5 5 5 5 5 5 5 5 5 5 5 5 5 4 5 4 4 4 4 4
5 5 5 5 5 5 5 5 5 5 5 5 5 5 5 5 5 5 5 5 5 5 5 5 5 5 5 5 5 5 4 4 4 4 4 4 4 4 4 4 4 4 4
5 5 5 5 5 5 4 4 4 4 4 4 4 4 4 4 4 4 4 4 4 4 4 4 4 4 4 4 4 4 4 4 4 4 4 3 4 4 3 3 3 3 3
4 4 4 4 4 4 4 4 4 4 4 3 3 3 3 3 4 4 3 3 3 3 3 3 3 3 3 3 3 3 3 3 3 3 3 3 3 3 3 3 3 2 3
4 4 4 4 3 3 3 3 3 3 3 3 3 3 3 3 3 3 3 3 3 3 3 3 3 3 3 3 3 3 3 3 3 3 3 3 3 3 2 2 2 2 2
3 3 3 3 3 3 3 2 2 2 2 2 2 2 2 2 2 2 2 2 2 2 2 2 2 2 2 2 2 2 2 2 2 2 2 2 2 2 2 2 1 1 1
2 2 2 2 2 2 2 2 2 2 2 2 2 2 2 2 2 2 2 2 2 2 2 2 2 2 2 2 2 2 2 2 1 2 2 2 2 2 1 1 1 1 0
2 2 2 2 2 1 1 1 1 1 1 1 1 1 1 1 1 1 1 1 1 1 1 1 1 1 1 1 1 1 1 1 1 1 1 1 1 1 1 1 0 0 0
1 1 1 1 1 1 1 1 1 0 0 0 0 0 1 1 1 1 1 1 1 0 0 0 0 1 1 1 1 1 0 0 0 0 0 0 0 0 0 0 0 -0 -0
0 0 0 0 0 0 0 0 -0 -0 -0 -0 -0 -0 -0 0 0 0 0 0 -0 -0 -0 -0 -0 -0 -0 0 0 0 -0 -0 -0 -0 -0 -0 -0 -0 -0 -0 -1 -1 -1
-0 -0 -0 -0 -1 -1 -1 -1 -0 -1 -1 -1 -1 -1 -1 -1 -1 -1 -0 -0 -1 -1 -1 -1 -1 -1 -1 -1 -1 -1 -1 -1 -1 -1 -1 -1 -1 -1 -1 -1 -1 -1 -1
-1 -1 -1 -1 -1 -1 -1 -1 -1 -1 -1 -1 -1 -1 -1 -1 -1 -1 -1 -1 -1 -1 -1 -1 -1 -1 -1 -1 -1 -1 -1 -1 -1 -2 -2 -2 -2 -2 -2 -2 -2 -2 -2
-2 -2 -2 -2 -2 -2 -2 -2 -2 -2 -2 -2 -2 -2 -2 -2 -1 -2 -2 -2 -2 -2 -2 -2 -2 -2 -2 -2 -2 -2 -2 -2 -2 -2 -2 -2 -2 -2 -2 -2 -2 -2 -2
-2 -2 -2 -2 -2 -2 -2 -2 -2 -2 -2 -2 -2 -2 -2 -2 -2 -2 -2 -2 -2 -2 -3 -3 -3 -3 -3 -3 -3 -3 -3 -3 -3 -3 -3 -3 -3 -3 -3 -3 -3 -3 -3
-3 -2 -2 -3 -3 -3 -3 -3 -3 -3 -3 -3 -2 -2 -2 -2 -2 -3 -3 -3 -3 -3 -3 -3 -3 -3 -3 -3 -3 -3 -3 -3 -3 -4 -4 -4 -4 -4 -4 -4 -4 -4 -4
-3 -3 -3 -3 -3 -3 -3 -3 -3 -3 -3 -3 -3 -3 -3 -3 -3 -3 -3 -3 -4 -4 -4 -4 -4 -4 -4 -4 -4 -4 -4 -4 -4 -4 -4 -4 -4 -4 -4 -4 -4 -4 -4
-3 -3 -3 -3 -4 -4 -4 -4 -4 -4 -4 -4 -4 -4 -4 -4 -4 -4 -4 -4 -4 -4 -4 -4 -4 -4 -4 -4 -4 -4 -4 -4 -5 -5 -5 -5 -5 -5 -5 -5 -5 -5 -5
-4 -4 -4 -4 -4 -4 -4 -4 -4 -4 -4 -4 -4 -4 -5 -5 -5 -5 -5 -5 -5 -5 -5 -5 -5 -5 -5 -5 -5 -5 -5 -5 -5 -5 -5 -5 -5 -5 -5 -5 -5 -5 -5
-4 -4 -4 -4 -4 -4 -5 -5 -5 -5 -5 -5 -5 -5 -5 -5 -5 -5 -5 -5 -5 -5 -5 -5 -5 -5 -5 -5 -5 -5 -5 -5 -5 -5 -5 -5 -5 -5 -5 -5 -5 -5 -5
-5 -5 -5 -5 -5 -5 -5 -5 -5 -5 -5 -5 -5 -5 -5 -6 -6 -6 -5 -5 -5 -5 -5 -5 -5 -5 -5 -5 -5 -6 -6 -5 -6 -6 -6 -6 -6 -6 -6 -6 -6 -6 -6
-5 -5 -5 -5 -5 -5 -5 -5 -6 -6 -6 -6 -6 -6 -6 -6 -6 -6 -6 -6 -6 -6 -6 -6 -6 -6 -6 -6 -6 -6 -6 -6 -6 -6 -6 -6 -6 -6 -6 -6 -6 -6 -6
-6 -6 -6 -6 -6 -6 -6 -6 -6 -6 -6 -6 -6 -6 -6 -6 -6 -6 -6 -6 -6 -6 -6 -6 -6 -6 -6 -6 -6 -6 -6 -6 -6 -6 -6 -6 -6 -6 -6 -6 -6 -6 -6
-6 -6 -6 -6 -6 -6 -6 -6 -6 -6 -6 -6 -7 -6 -6 -6 -6 -6 -6 -7 -7 -6 -6 -6 -6 -6 -6 -6 -6 -6 -6 -6 -6 -6 -6 -6 -6 -6 -6 -6 -6 -6 -6
Wind_Speed
4 3 3 2 2 3 2 2 2 2 2 2 2 3 3 3 3 4 4 4 4 4 4 4 4 3 3 3 3 3 4 5 6 5 4 4 4 4 4 4 5 4 4
3 3 3 2 2 3 2 2 2 2 2 2 2 3 3 3 3 4 4 4 4 4 4 5 4 3 4 4 4 4 4 5 5 6 4 4 5 5 5 4 4 4 5
4 4 3 3 3 3 2 2 2 2 2 2 2 2 2 3 3 3 4 4 4 5 5 5 5 5 5 4 5 4 4 4 4 5 5 4 4 4 4 4 4 4 4
4 4 4 3 3 3 2 2 2 2 2 2 2 2 2 3 3 3 4 4 5 5 5 5 6 6 6 6 5 5 5 4 5 5 5 4 4 4 4 4 4 4 4
4 4 4 3 3 3 2 2 2 2 2 2 2 2 3 3 3 3 4 5 5 5 5 5 5 5 6 6 5 6 6 5 5 5 5 4 4 4 5 4 5 4 5
5 4 3 3 3 3 3 2 2 2 2 2 2 3 3 3 3 4 4 4 5 6 5 5 5 5 6 6 7 7 7 7 7 6 6 7 7 6 5 5 4 4 4
4 3 3 3 3 3 2 2 2 2 2 3 3 3 4 4 4 5 5 5 5 5 6 5 5 5 6 6 6 7 8 9 10 9 9 9 8 7 7 7 7 6 6
3 3 3 3 3 3 3 3 3 3 3 3 4 4 4 4 5 6 6 6 5 5 5 6 6 6 6 6 6 6 7 8 9 8 9 9 8 7 7 8 7 6 5
3 3 3 4 4 3 3 3 3 3 3 3 4 5 5 5 5 6 6 4 4 5 5 6 6 6 6 6 6 7 7 7 6 8 10 9 9 8 8 6 6 5 6
4 3 3 3 3 3 3 3 3 3 4 4 4 5 5 6 6 7 7 4 5 5 5 5 6 7 6 6 7 7 8 8 6 6 7 7 8 8 9 9 8 7 5
2 2 2 2 3 3 3 3 3 3 4 4 4 4 5 5 6 7 7 5 5 5 5 5 5 6 8 8 8 8 9 8 7 7 7 6 6 6 7 7 7 7 7
2 2 2 2 2 3 3 3 3 4 4 4 4 4 3 4 4 5 7 7 6 6 6 5 5 6 8 10 9 9 9 8 6 6 6 6 6 6 5 6 7 7 8
2 2 2 2 2 3 3 3 3 3 3 4 4 4 3 3 3 5 7 7 8 6 6 7 8 9 9 8 8 9 8 7 6 7 7 7 5 5 4 4 4 5 6
2 2 2 2 2 2 2 3 3 4 4 4 4 4 4 4 3 3 4 5 6 6 6 6 7 8 7 7 7 7 6 7 7 7 7 6 4 4 5 4 5 4 5
2 2 2 2 3 3 3 3 4 5 5 5 5 5 5 5 5 6 5 5 5 5 5 5 5 5 5 6 6 6 6 6 6 6 6 6 5 5 5 5 5 5 6
2 3 3 3 3 3 3 3 4 6 7 8 8 8 7 8 8 9 9 9 9 8 6 6 6 6 6 6 6 6 6 6 6 6 6 6 6 6 6 5 5 6 7
3 3 3 3 3 3 4 4 4 4 6 8 9 9 10 10 10 10 10 9 9 8 7 6 7 7 7 6 6 6 6 6 5 5 6 6 6 6 6 6 6 6 7
3 3 3 3 3 4 4 4 4 5 5 5 5 8 9 10 10 10 9 7 6 6 6 6 6 7 6 6 6 6 6 6 5 6 6 6 6 6 6 7 6 7 7
4 3 3 4 4 4 4 4 4 5 5 5 5 5 6 7 8 8 7 6 6 6 6 6 6 6 6 6 6 6 6 6 6 6 6 6 6 6 7 7 7 8 7
4 5 5 4 4 4 4 4 5 5 5 5 5 5 4 4 5 5 5 6 6 7 7 7 7 7 6 6 6 6 6 6 6 6 6 6 6 6 7 8 7 7 7
4 4 5 4 4 4 4 5 5 5 5 5 6 6 6 5 6 6 6 6 7 7 7 7 7 7 7 6 6 6 7 7 7 6 7 7 6 7 7 7 7 7 7
4 4 4 4 4 4 5 5 5 5 6 6 6 6 8 6 6 6 6 7 7 7 7 7 7 7 7 7 6 7 7 7 7 7 7 7 7 7 7 7 7 7 6
4 4 4 4 4 5 5 5 5 5 6 6 6 6 6 6 6 6 7 7 7 7 7 7 7 7 7 7 7 7 8 8 7 7 7 7 7 7 7 7 8 8 7
4 5 5 5 5 5 5 5 5 6 6 6 6 6 6 6 7 7 7 7 7 7 7 7 7 9 10 9 8 9 9 9 9 8 9 8 8 7 7 7 8 8 8
5 5 5 5 5 5 5 6 6 6 6 6 6 6 7 7 7 7 7 7 7 7 8 8 7 8 10 11 10 10 11 13 12 10 8 8 8 8 8 8 8 7 7
5 5 5 5 5 5 6 6 6 6 6 6 6 7 7 7 7 7 7 7 7 7 8 7 8 9 10 10 11 13 14 14 14 13 10 8 8 8 8 8 8 8 7
Wind_Direction
152 151 142 143 153 154 160 172 180 184 189 193 201 194 194 205 209 204 208 209 212 217 216 219 229 229 228 231 233 236 239 238 243 250 253 247 246 259 270 270 271 270 273
162 156 152 150 160 165 172 178 180 181 191 200 198 194 196 206 214 212 211 213 216 221 225 226 229 228 228 229 228 230 239 242 243 250 253 249 252 251 259 263 269 269 274
170 167 165 171 178 181 185 186 184 185 189 192 192 192 199 209 214 218 220 220 222 227 228 227 230 227 229 226 228 231 236 242 243 244 249 249 256 248 255 264 266 274 279
178 179 183 190 196 195 196 199 200 195 193 201 213 215 216 218 218 218 223 227 229 233 233 230 232 231 233 228 228 230 230 232 236 237 244 245 251 255 251 257 270 274 278
187 193 198 201 199 192 195 201 204 204 205 204 213 224 231 233 230 224 229 232 234 237 238 238 238 238 240 241 235 232 230 230 235 241 244 245 245 243 245 252 260 272 278
194 202 200 199 196 197 200 201 199 205 210 215 222 230 240 242 227 233 240 240 240 237 238 242 243 239 237 238 240 239 237 234 236 241 249 244 246 246 244 248 256 270 276
194 202 202 200 196 197 201 205 209 212 213 224 231 233 242 247 233 233 236 242 244 246 243 243 245 244 238 243 240 236 240 240 242 246 249 249 249 244 240 243 245 253 264
192 201 205 206 203 202 206 216 226 226 226 235 240 241 245 246 236 230 230 238 244 247 246 247 249 251 247 249 254 252 251 248 244 245 250 254 252 245 239 241 245 256 275
199 204 207 208 205 205 211 221 231 232 237 245 245 243 244 247 237 231 232 237 240 247 252 252 251 253 248 249 255 256 260 259 252 248 255 257 256 248 242 238 235 242 266
207 212 213 213 210 212 218 227 239 237 240 247 249 246 244 248 240 234 234 232 239 248 252 252 249 252 255 252 256 257 259 264 263 261 258 254 250 242 233 232 230 232 251
205 203 216 220 214 215 221 230 232 235 238 242 249 253 250 248 243 237 236 231 236 246 252 256 256 252 260 260 262 260 258 266 265 260 260 257 249 241 235 238 237 233 238
200 205 221 226 219 213 213 226 231 229 231 239 245 254 256 256 255 244 239 241 245 250 255 258 259 258 265 265 264 260 259 260 257 255 256 255 248 244 240 242 246 249 248
196 218 231 235 228 222 219 224 235 233 234 242 247 254 260 262 259 254 250 248 248 253 258 259 264 265 264 262 256 258 256 251 249 249 252 255 254 252 249 250 253 252 260
208 233 241 240 241 239 237 233 235 236 240 245 249 254 261 263 260 258 256 253 250 255 260 258 259 261 259 260 260 256 252 249 246 249 254 259 257 251 248 246 247 243 256
237 258 260 255 249 252 254 252 248 248 250 252 254 255 256 261 263 268 269 265 264 264 272 271 267 263 263 263 261 260 257 253 252 250 249 253 254 253 253 248 242 245 251
243 257 262 259 254 253 256 266 259 252 263 262 261 261 264 263 268 268 270 270 270 263 265 260 260 260 261 262 263 265 262 258 254 251 249 249 250 252 255 252 246 244 246
240 254 258 256 251 252 253 256 268 267 253 255 257 261 262 266 268 268 268 267 263 257 256 255 257 260 261 263 263 263 264 262 257 255 252 250 250 251 253 253 249 247 248
247 253 254 256 253 252 253 256 259 267 275 276 267 265 266 266 267 267 264 266 260 253 251 254 257 260 261 261 261 263 263 262 258 256 252 249 246 247 249 249 248 249 250
254 252 254 255 253 251 252 255 259 263 268 276 283 280 271 267 266 261 257 256 257 258 256 257 258 259 259 260 261 261 261 262 261 257 253 250 249 248 249 249 249 248 253
258 255 259 259 257 255 256 258 261 263 268 272 276 280 281 272 264 259 255 255 257 259 259 260 261 259 258 258 260 260 262 261 261 258 255 251 248 248 249 249 248 250 252
261 259 254 257 257 255 256 259 262 263 266 270 273 276 274 270 266 265 262 259 259 260 261 262 263 262 259 258 257 257 259 261 260 259 257 252 247 247 249 249 249 250 252
262 263 260 258 261 260 261 262 264 264 266 270 275 276 274 268 267 268 267 265 264 263 262 262 262 261 258 254 253 254 256 258 258 256 255 252 247 246 247 247 247 247 247
259 260 262 262 263 265 267 265 263 263 266 269 273 275 274 270 269 269 271 272 271 269 266 261 262 263 263 258 253 250 251 253 254 253 254 254 251 248 246 244 245 247 248
260 258 260 263 263 263 265 268 267 268 269 272 273 274 273 273 273 273 275 276 275 272 268 264 261 261 263 262 258 255 253 253 253 250 248 249 250 250 246 244 246 248 250
262 261 262 262 263 265 268 270 271 271 272 273 273 274 275 276 277 278 278 277 277 275 273 270 265 263 262 261 259 257 255 254 254 254 249 246 246 245 245 245 246 249 248
263 263 264 265 265 266 268 270 272 273 274 275 275 276 278 279 280 281 280 278 279 278 278 275 269 267 266 264 262 258 258 257 255 254 249 245 243 243 242 243 245 243 243
Height
1469 1471 1472 1474 1475 1477 1478 1479 1480 1481 1482 1483 1484 1485 1486 1487 1488 1489 1490 1490 1491 1492 1493 1494 1495 1496 1497 1498 1498 1499 1500 1500 1499 1500 1500 1500 1500 1500 1500 1499 1499 1498 1497
1467 1469 1470 1471 1473 1474 1476 1477 1478 1478 1479 1480 1481 1481 1482 1484 1485 1485 1486 1487 1487 1488 1489 1490 1491 1492 1493 1493 1494 1494 1495 1495 1495 1495 1495 1495 1496 1496 1496 1495 1494 1494 1493
1465 1467 1468 1470 1471 1472 1473 1474 1475 1476 1476 1477 1477 1478 1479 1480 1481 1482 1482 1483 1483 1484 1485 1486 1487 1488 1488 1489 1489 1490 1490 1491 1491 1491 1490 1491 1491 1491 1491 1491 1490 1489 1489
1463 1465 1466 1467 1468 1469 1470 1471 1472 1472 1473 1474 1474 1475 1475 1476 1477 1478 1478 1479 1479 1480 1481 1482 1482 1483 1484 1484 1485 1485 1486 1486 1486 1486 1486 1486 1486 1486 1486 1486 1485 1485 1484
1461 1462 1463 1465 1466 1467 1467 1468 1469 1469 1470 1470 1471 1471 1472 1473 1473 1473 1474 1475 1475 1476 1476 1477 1478 1478 1479 1480 1480 1481 1481 1481 1482 1482 1481 1481 1481 1481 1481 1481 1480 1480 1479
1457 1459 1460 1461 1463 1464 1464 1465 1466 1466 1467 1467 1468 1468 1468 1469 1469 1470 1470 1471 1471 1471 1472 1472 1473 1473 1474 1474 1475 1476 1476 1476 1476 1477 1476 1476 1476 1476 1476 1476 1476 1475 1474
1454 1455 1457 1458 1459 1460 1461 1462 1462 1463 1463 1464 1464 1464 1464 1465 1465 1466 1466 1467 1467 1467 1467 1467 1467 1468 1468 1469 1469 1470 1470 1470 1471 1472 1471 1470 1471 1471 1472 1471 1471 1470 1469
1450 1452 1453 1454 1455 1456 1457 1458 1458 1459 1459 1459 1460 1460 1460 1460 1461 1461 1462 1462 1462 1462 1462 1462 1463 1463 1463 1464 1464 1464 1464 1464 1465 1465 1466 1465 1466 1466 1466 1466 1465 1465 1464
1447 1448 1450 1451 1451 1452 1453 1454 1455 1455 1456 1456 1456 1456 1456 1456 1456 1457 1457 1457 1457 1457 1457 1458 1458 1458 1459 1459 1459 1458 1458 1459 1459 1459 1460 1460 1460 1460 1460 1461 1460 1459 1457
1443 1444 1446 1447 1448 1448 1449 1450 1451 1452 1452 1452 1451 1451 1451 1451 1451 1452 1452 1452 1452 1452 1453 1453 1454 1454 1454 1453 1454 1453 1453 1453 1453 1453 1453 1453 1453 1453 1454 1454 1454 1453 1452
1440 1441 1442 1443 1444 1445 1446 1446 1447 1447 1447 1447 1447 1447 1447 1447 1447 1447 1448 1448 1448 1448 1448 1448 1448 1449 1448 1448 1448 1448 1447 1447 1447 1447 1447 1446 1446 1446 1447 1447 1447 1447 1446
1437 1438 1439 1440 1440 1441 1442 1442 1443 1443 1443 1443 1443 1443 1443 1443 1443 1443 1443 1444 1443 1443 1442 1442 1443 1443 1443 1443 1442 1442 1442 1442 1441 1441 1440 1440 1440 1440 1440 1440 1440 1440 1440
1435 1435 1436 1436 1437 1438 1438 1438 1439 1439 1439 1439 1439 1439 1439 1439 1439 1439 1439 1439 1439 1438 1438 1438 1437 1437 1437 1436 1436 1436 1436 1435 1435 1434 1434 1433 1434 1434 1434 1434 1433 1433 1433
1432 1432 1433 1433 1433 1434 1434 1435 1435 1435 1435 1435 1435 1435 1434 1434 1434 1434 1434 1434 1433 1433 1432 1432 1432 1431 1431 1430 1430 1429 1429 1429 1429 1428 1427 1427 1427 1427 1427 1427 1427 1426 1426
1429 1429 1430 1430 1430 1430 1431 1431 1431 1432 1432 1432 1431 1431 1430 1430 1430 1430 1429 1429 1428 1428 1427 1426 1426 1426 1425 1424 1424 1423 1423 1423 1422 1422 1421 1421 1421 1421 1421 1421 1421 1420 1419
1426 1427 1427 1427 1427 1427 1427 1427 1427 1428 1427 1427 1427 1427 1425 1425 1425 1424 1424 1424 1423 1422 1422 1420 1420 1420 1419 1419 1418 1417 1417 1417 1416 1416 1415 1415 1415 1415 1415 1415 1414 1414 1413
1424 1424 1424 1424 1424 1424 1423 1423 1423 1423 1423 1422 1422 1421 1420 1420 1419 1419 1419 1418 1418 1417 1416 1415 1415 1414 1414 1413 1412 1411 1411 1410 1410 1409 1409 1409 1409 1409 1408 1408 1408 1408 1407
1421 1421 1421 1421 1420 1420 1420 1419 1419 1418 1418 1417 1416 1416 1415 1414 1414 1414 1413 1413 1412 1411 1411 1410 1409 1409 1408 1407 1407 1406 1405 1405 1404 1404 1403 1403 1403 1402 1402 1402 1402 1402 1402
1418 1418 1417 1417 1416 1416 1416 1415 1415 1414 1413 1412 1411 1410 1410 1409 1408 1408 1408 1407 1406 1406 1405 1404 1404 1403 1402 1402 1401 1400 1400 1399 1398 1398 1397 1397 1397 1397 1397 1397 1397 1396 1397
1414 1414 1414 1413 1412 1412 1411 1411 1410 1409 1408 1407 1407 1406 1405 1404 1403 1403 1403 1402 1401 1400 1400 1399 1398 1398 1397 1396 1395 1395 1394 1393 1392 1392 1391 1391 1391 1392 1391 1391 1391 1391 1391
1410 1410 1409 1409 1408 1408 1407 1406 1406 1405 1404 1403 1402 1401 1400 1399 1399 1398 1398 1397 1396 1395 1394 1393 1393 1392 1391 1391 1390 1389 1388 1387 1387 1386 1386 1386 1386 1386 1386 1386 1386 1386 1386
1406 1406 1405 1405 1404 1403 1403 1402 1401 1401 1400 1399 1397 1397 1396 1395 1394 1393 1392 1391 1390 1389 1389 1388 1387 1386 1385 1385 1384 1383 1382 1382 1381 1381 1381 1380 1380 1380 1380 1380 1380 1380 1380
1402 1402 1401 1400 1400 1399 1398 1398 1397 1396 1395 1394 1393 1392 1391 1390 1388 1387 1386 1385 1384 1383 1383 1382 1381 1380 1380 1379 1378 1377 1377 1376 1376 1376 1375 1375 1375 1375 1375 1375 1375 1375 1375
1398 1397 1397 1396 1395 1395 1394 1393 1392 1391 1390 1389 1388 1387 1386 1385 1383 1382 1381 1380 1378 1377 1377 1376 1375 1374 1373 1373 1372 1371 1371 1370 1370 1370 1370 1369 1369 1369 1369 1369 1369 1370 1370
1393 1392 1392 1391 1391 1390 1389 1388 1388 1387 1385 1384 1383 1382 1381 1379 1378 1377 1375 1374 1373 1371 1370 1370 1369 1368 1367 1366 1366 1365 1365 1364 1364 1364 1364 1364 1363 1363 1364 1364 1364 1364 1365
1388 1388 1387 1386 1386 1385 1384 1384 1383 1382 1381 1379 1378 1377 1376 1374 1373 1371 1370 1369 1367 1366 1364 1363 1362 1361 1361 1360 1359 1359 1359 1358 1358 1358 1359 1358 1358 1358 1358 1358 1359 1359 1359